Location: Dunedin
(45.8900°S, 170.5000°E)
Time: 16:27:08
(UTC+13:00)

ISS - Visible Passes

Search period start: 13 December 2025 00:00
Search period end: 23 December 2025 00:00
Orbit: 416 x 420 km, 51.6° (Epoch: 12 December)

Date Brightness Start Highest point End Pass type
(mag) Time Alt. Az. Time Alt. Az. Time Alt. Az.
13 Dec -1.7 00:00:42 10° WSW 00:03:47 30° S 00:06:52 10° ESE visible
13 Dec -3.3 01:37:36 10° WSW 01:40:59 61° SSE 01:41:49 44° E visible
13 Dec -1.7 23:12:35 10° WSW 23:15:40 30° S 23:18:45 10° ESE visible
14 Dec -2.7 00:49:38 10° WSW 00:52:58 45° SSE 00:54:41 24° E visible
14 Dec -1.6 02:26:30 10° WSW 02:27:33 18° W 02:27:33 18° W visible
14 Dec -1.8 22:24:25 10° WSW 22:27:32 31° S 22:30:39 10° ESE visible
15 Dec -2.2 00:01:38 10° WSW 00:04:52 37° SSE 00:07:47 12° E visible
15 Dec -2.7 01:38:25 10° WSW 01:40:39 37° W 01:40:39 37° W visible
15 Dec -2.0 23:13:35 10° WSW 23:16:43 32° S 23:19:51 10° ESE visible
16 Dec -3.8 00:50:23 10° WSW 00:53:49 84° SSE 00:53:53 83° ESE visible
16 Dec -1.8 22:25:27 10° WSW 22:28:32 30° S 22:31:36 10° ESE visible
17 Dec -3.2 00:02:20 10° WSW 00:05:44 59° SSE 00:07:10 30° E visible
17 Dec -1.3 01:39:25 10° W 01:40:04 14° W 01:40:04 14° W visible
17 Dec -2.7 23:14:17 10° WSW 23:17:36 44° SSE 23:20:31 12° E visible
18 Dec -2.6 00:51:08 10° WSW 00:53:24 32° W 00:53:24 32° W visible
18 Dec -2.3 22:26:11 10° WSW 22:29:23 36° SSE 22:32:36 10° E visible
19 Dec -3.8 00:02:56 10° WSW 00:06:21 67° NNW 00:06:46 58° NNE visible
19 Dec -3.7 23:14:47 10° WSW 23:18:14 82° SSE 23:20:11 24° ENE visible
20 Dec -1.3 00:52:16 10° W 00:53:04 14° WNW 00:53:04 14° WNW visible
20 Dec -3.2 22:26:39 10° WSW 22:30:02 57° SSE 22:33:25 10° ENE visible
21 Dec -2.5 00:03:41 10° W 00:06:29 27° NW 00:06:29 27° NW visible
21 Dec -3.2 23:15:18 10° WSW 23:18:34 44° NW 23:19:56 28° NNE visible
22 Dec -3.7 22:27:00 10° WSW 22:30:25 70° NNW 22:33:23 13° NE visible
